Location: Cuiry
(49.3858°N, 3.7708°E)
Time: 01:19:01
(UTC+00:00)

UNK - Pass Details

Date: 11 April 2026
Orbit: 653 x 673 km, 98.4° (Epoch: 19 May)

Event Time Altitude Azimuth Distance (km) Brightness Sun altitude
Rises 02:45:06 0° 117° (ESE) 3,018 7.4 -20.4°
Reaches altitude 10° 02:47:59 10° 98° (E) 2,107 6.8 -20.0°
Maximum altitude 02:50:57 17° 58° (ENE) 1,675 6.8 -19.7°
Drops below altitude 10° 02:53:55 10° 17° (NNE) 2,113 7.1 -19.3°
Sets 02:56:48 0° 358° (N) 3,029 7.6 -18.9°
